Weather History for KTTN - February, 2013

Change the Weather History Date:

Monday, February 4, 2013

  Actual Average Record
Temperature  
Mean Temperature 26 °F 32 °F  
Max Temperature 30 °F 40 °F 65 °F (1991)
Min Temperature 21 °F 24 °F 1 °F (1918)
Degree Days  
Heating Degree Days 39 33  
Month to date heating degree days 157 132  
Since 1 July heating degree days 2865 3078  
Cooling Degree Days 0 0  
Month to date cooling degree days 0 0  
Year to date cooling degree days 0 0  
Moisture  
Dew Point 11 °F    
Average Humidity 54    
Maximum Humidity 68    
Minimum Humidity 39    
Precipitation  
Precipitation 0.00 in 0.07 in 1.63 in (1920)
Month to date precipitation 0.03 0.29  
Year to date precipitation 2.85 3.45  
Sea Level Pressure  
Sea Level Pressure 29.95 in    
Wind  
Wind Speed 9 mph (WNW)    
Max Wind Speed 18 mph    
Max Gust Speed 26 mph    
Visibility 10 miles    
Events      
T = Trace of Precipitation, MM = Missing Value Source: NWS Daily Summary

Daily Weather History Graph

Daily Weather History Graph

Search for Another Location

Airport or City:

Trip Planner

Search our weather history database for the weather conditions in past years. The results will help you decide how hot, cold, wet, or windy it might be!

Date:

Astronomy

Feb. 04, 2013 Rise Set
Actual Time 7:05 AM EST 5:21 PM EST
Civil Twilight 6:36 AM EST 5:50 PM EST
Nautical Twilight 6:04 AM EST 6:22 PM EST
Astronomical Twilight 5:32 AM EST 6:54 PM EST
Moon 1:38 AM EST (2/4) 11:43 AM EST (2/4)
Length of Visible Light 11h 13m
Length of Day
10h 16m
Last Quarter, 37% of the Moon is Illuminated
Feb 4
Last Quarter
Feb 10
New
Feb 17
First Quarter
Feb 25
Full
Mar 4
Last Quarter

Hourly Weather History & Observations

Time (EST) Temp. Windchill Dew Point Humidity Pressure Visibility Wind Dir Wind Speed Gust Speed Precip Events Conditions
12:53 AM 27.0 °F 16.7 °F 17.1 °F 66% 29.85 in 10.0 mi NW 11.5 mph 16.1 mph N/A   Overcast
1:53 AM 25.0 °F 11.3 °F 10.0 °F 53% 29.87 in 10.0 mi NW 18.4 mph 25.3 mph N/A   Clear
2:53 AM 24.1 °F 12.0 °F 8.1 °F 51% 29.89 in 10.0 mi NW 13.8 mph 20.7 mph N/A   Clear
3:53 AM 23.0 °F 11.1 °F 8.1 °F 53% 29.91 in 10.0 mi NW 12.7 mph 24.2 mph N/A   Clear
5:53 AM 21.9 °F 14.5 °F 9.0 °F 58% 29.96 in 10.0 mi WNW 5.8 mph - N/A   Clear
6:53 AM 21.0 °F 13.4 °F 9.0 °F 60% 29.96 in 10.0 mi WNW 5.8 mph - N/A   Clear
7:53 AM 21.9 °F 14.5 °F 9.0 °F 58% 29.99 in 10.0 mi WNW 5.8 mph - N/A   Clear
8:53 AM 24.1 °F 13.7 °F 10.0 °F 55% 30.01 in 10.0 mi WNW 10.4 mph - N/A   Clear
9:53 AM 26.1 °F 14.5 °F 10.0 °F 51% 30.01 in 10.0 mi WNW 13.8 mph 21.9 mph N/A   Scattered Clouds
10:53 AM 27.0 °F 16.1 °F 8.1 °F 45% 30.00 in 10.0 mi WNW 12.7 mph 25.3 mph N/A   Scattered Clouds
11:53 AM 28.9 °F 17.7 °F 8.1 °F 41% 29.99 in 10.0 mi West 15.0 mph 21.9 mph N/A   Mostly Cloudy
12:53 PM 28.9 °F 18.6 °F 8.1 °F 41% 29.97 in 10.0 mi West 12.7 mph 25.3 mph N/A   Scattered Clouds
1:53 PM 28.9 °F 18.2 °F 7.0 °F 40% 29.95 in 10.0 mi WNW 13.8 mph 21.9 mph N/A   Clear
2:53 PM 28.9 °F 17.7 °F 7.0 °F 40% 29.94 in 10.0 mi NW 15.0 mph 23.0 mph N/A   Clear
3:53 PM 28.9 °F 19.2 °F 8.1 °F 41% 29.95 in 10.0 mi WNW 11.5 mph 18.4 mph N/A   Clear
4:53 PM 28.9 °F 21.9 °F 9.0 °F 43% 29.95 in 10.0 mi WNW 6.9 mph - N/A   Clear
5:53 PM 28.0 °F 24.2 °F 10.0 °F 47% 29.96 in 10.0 mi WNW 3.5 mph - N/A   Clear
6:53 PM 27.0 °F - 10.9 °F 51% 29.97 in 10.0 mi Calm Calm - N/A   Clear
7:53 PM 26.1 °F - 10.9 °F 53% 29.96 in 10.0 mi Calm Calm - N/A   Clear
8:53 PM 25.0 °F - 12.0 °F 58% 29.96 in 10.0 mi Calm Calm - N/A   Clear
9:53 PM 26.1 °F - 15.1 °F 63% 29.96 in 10.0 mi Calm Calm - N/A   Overcast
10:53 PM 27.0 °F 21.6 °F 18.0 °F 69% 29.94 in 8.0 mi SW 4.6 mph - 0.00 in   Overcast
11:53 PM 27.0 °F 23.0 °F 21.0 °F 78% 29.94 in 9.0 mi SSW 3.5 mph - 0.00 in   Overcast